Погода в Синтанге

Индонезия     0°04′28″N   111°28′44″E
темп.,
°C
ветер,
м/с
пор.,
м/с
влажн.,
%
обл.,
%
осадки,
мм/ч
давл.,
гПа
погр.,
м
2 марта, вт
вт201:00+24сз127896 0.0 101193
04:00+24ссв118897 0.0 101041
07:00+25с128898 0.0 1012150
10:00+33с125363 0.1 10121236
13:00+34с125074 0.1 10081626
16:00+32сз135875 0.3 1007963
19:00+26юз128576 2.0 100949
22:00+24з139765 4.8 101297
3 марта, ср
ср301:00+23зсз139883 13.6 1010110
04:00+23всв0198100 2.6 101024
07:00+24ююв1197100 2.8 1012132
10:00+30ююз007384 5.1 1013606
13:00+28ю128591 10.7 1009408
16:00+28вюв2477100 1.0 1008425
19:00+25вюв2789100 1.0 1010343
22:00+23ююв1391100 0.0 1011105
4 марта, чт
чт401:00+23вюв1190100 0.0 101157
04:00+23юв1291100 0.0 101191
07:00+23всв1189100 0.0 101278
10:00+26ююз0180100 0.0 1012319
13:00+33в025095 0.0 10081398
16:00+32всв1151100 0.0 10071425
19:00+25сз018370 0.4 100924
22:00+23ююв119591 1.2 101223
5 марта, пт
пт501:00+23с019789 1.8 101023
04:00+22всв0199100 0.0 101023
07:00+24в129598 0.6 1013157
10:00+30вюв126695 0.3 1013776
13:00+33юв115769 1.9 10091353
16:00+28зсз148974 4.2 1008216
19:00+24ссв149787 9.7 1011109
22:00+23всв1197100 0.6 101224
6 марта, сб
сб601:00+23ююв1198100 0.6 101024
04:00+22ююв019996 0.0 100923
07:00+24всв019582 0.0 1011133
10:00+32ссв125648 0.0 1012999
13:00+35ссв224460 0.0 10081751
16:00+33с135670 0.0 1007486
19:00+28св117062 0.0 100924
22:00+25зсз128595 0.2 101024